When you browse on this site, cookies collect data to enhance your experience and personalize the content and advertising you see.
Visit our Privacy Policy to learn more. By continuing to use the site, you agree to this use of cookies and data.
  • In Hungary
  • List of Countries
  • For 7 days
  • Water Temperature
  • Satellite Maps
  • Weather Map
  • News
  • Weather Widgets
  • user-avatar
    Login

    Hourly Weather Santa Fe

    Today, 19 December, Wednesday

    Time Temperature Precipitation Wind Pressure Humidity
    00:00 -1°C° 0 mm 3 mps 581 mmHg 67%
    01:00 -1°C° 0 mm 3 mps 581 mmHg 67%
    02:00 -1°C° 0 mm 3 mps 581 mmHg 68%
    03:00 -1°C° 0 mm 3 mps 582 mmHg 67%
    04:00 -1°C° 0 mm 3 mps 582 mmHg 65%
    05:00 -1°C° 0 mm 3 mps 582 mmHg 64%
    06:00 -1°C° 0 mm 3 mps 583 mmHg 62%
    07:00 -1°C° 0 mm 3 mps 583 mmHg 60%
    08:00 -1°C° 0 mm 3 mps 584 mmHg 59%
    09:00 +1°C° 0 mm 4 mps 585 mmHg 49%
    10:00 +4°C° 0 mm 4 mps 586 mmHg 40%
    11:00 +7°C° 0 mm 5 mps 586 mmHg 31%
    12:00 +7°C° 0 mm 6 mps 586 mmHg 30%
    13:00 +6°C° 0 mm 7 mps 586 mmHg 30%
    14:00 +6°C° 0 mm 8 mps 585 mmHg 29%
    15:00 +5°C° 0 mm 7 mps 585 mmHg 35%
    16:00 +3°C° 0 mm 6 mps 584 mmHg 41%
    17:00 +1°C° 0 mm 5 mps 583 mmHg 47%
    18:00 0°C° 0 mm 5 mps 584 mmHg 50%
    19:00 -1°C° 0 mm 4 mps 584 mmHg 53%
    20:00 -2°C° 0 mm 4 mps 584 mmHg 56%
    21:00 -1°C° 0 mm 3 mps 585 mmHg 56%
    22:00 -2°C° 0 mm 3 mps 585 mmHg 57%
    23:00 -2°C° 0 mm 3 mps 585 mmHg 58%

    Tomorrow, 20 December, Thursday

    Time Temperature Precipitation Wind Pressure Humidity
    00:00 -2°C° 0 mm 3 mps 585 mmHg 57%
    01:00 -2°C° 0 mm 2 mps 585 mmHg 56%
    02:00 -3°C° 0 mm 2 mps 586 mmHg 56%
    03:00 -3°C° 0 mm 2 mps 586 mmHg 55%
    04:00 -3°C° 0 mm 2 mps 586 mmHg 54%
    05:00 -3°C° 0 mm 2 mps 586 mmHg 54%
    06:00 -2°C° 0 mm 2 mps 586 mmHg 52%
    07:00 -2°C° 0 mm 2 mps 587 mmHg 50%
    08:00 -1°C° 0 mm 2 mps 587 mmHg 48%
    09:00 +1°C° 0 mm 3 mps 588 mmHg 41%
    10:00 +4°C° 0 mm 3 mps 589 mmHg 34%
    11:00 +7°C° 0 mm 3 mps 590 mmHg 26%
    12:00 +7°C° 0 mm 4 mps 589 mmHg 26%
    13:00 +8°C° 0 mm 4 mps 589 mmHg 25%
    14:00 +8°C° 0 mm 4 mps 589 mmHg 24%
    15:00 +6°C° 0 mm 4 mps 588 mmHg 29%
    16:00 +4°C° 0 mm 3 mps 587 mmHg 35%
    17:00 +2°C° 0 mm 3 mps 586 mmHg 40%
    18:00 +2°C° 0 mm 3 mps 586 mmHg 41%
    19:00 +1°C° 0 mm 3 mps 586 mmHg 42%
    20:00 0°C° 0 mm 3 mps 585 mmHg 44%
    21:00 0°C° 0 mm 3 mps 585 mmHg 44%
    22:00 0°C° 0 mm 3 mps 585 mmHg 45%
    23:00 -1°C° 0 mm 3 mps 585 mmHg 45%

    Day after tomorrow, 21 December, Friday

    Time Temperature Precipitation Wind Pressure Humidity
    00:00 -1°C° 0 mm 3 mps 584 mmHg 45%
    01:00 -1°C° 0 mm 3 mps 584 mmHg 44%
    02:00 -1°C° 0 mm 3 mps 583 mmHg 44%
    03:00 -1°C° 0 mm 3 mps 583 mmHg 43%
    04:00 -1°C° 0 mm 3 mps 583 mmHg 43%
    05:00 -1°C° 0 mm 3 mps 582 mmHg 43%
    06:00 0°C° 0 mm 3 mps 583 mmHg 41%
    07:00 0°C° 0 mm 3 mps 583 mmHg 39%
    08:00 +1°C° 0 mm 3 mps 583 mmHg 37%
    09:00 +3°C° 0 mm 4 mps 584 mmHg 32%
    10:00 +6°C° 0 mm 5 mps 585 mmHg 27%
    11:00 +9°C° 0 mm 5 mps 585 mmHg 22%
    12:00 +9°C° 0 mm 7 mps 585 mmHg 21%
    13:00 +10°C° 0 mm 8 mps 584 mmHg 20%
    14:00 +10°C° 0 mm 9 mps 584 mmHg 19%
    15:00 +7°C° 0 mm 8 mps 583 mmHg 23%
    16:00 +7°C° 0 mm 6 mps 583 mmHg 26%
    17:00 +5°C° 0 mm 5 mps 582 mmHg 30%
    18:00 +3°C° 0 mm 5 mps 582 mmHg 32%
    19:00 +3°C° 0 mm 4 mps 582 mmHg 34%
    20:00 +1°C° 0 mm 4 mps 582 mmHg 36%
    21:00 +1°C° 0 mm 4 mps 582 mmHg 37%
    22:00 0°C° 0 mm 4 mps 582 mmHg 37%
    23:00 0°C° 0 mm 4 mps 582 mmHg 38%

    22 December, Saturday

    Time Temperature Precipitation Wind Pressure Humidity
    00:00 0°C° 0 mm 4 mps 582 mmHg 39%
    01:00 0°C° 0 mm 3 mps 581 mmHg 39%
    02:00 0°C° 0 mm 3 mps 581 mmHg 40%
    03:00 0°C° 0 mm 3 mps 581 mmHg 41%
    04:00 -1°C° 0 mm 2 mps 581 mmHg 43%
    05:00 -1°C° 0 mm 2 mps 581 mmHg 45%
    06:00 -1°C° 0 mm 2 mps 582 mmHg 45%
    07:00 -1°C° 0 mm 2 mps 582 mmHg 45%
    08:00 +2°C° 0 mm 1 mps 583 mmHg 45%
    09:00 +2°C° 0 mm 3 mps 584 mmHg 39%
    10:00 +5°C° 0 mm 4 mps 585 mmHg 33%
    11:00 +7°C° 0 mm 5 mps 585 mmHg 26%
    12:00 +8°C° 0 mm 6 mps 585 mmHg 26%
    13:00 +7°C° 0 mm 8 mps 584 mmHg 25%
    14:00 +8°C° 0 mm 9 mps 584 mmHg 24%
    15:00 +6°C° 0 mm 8 mps 583 mmHg 27%
    16:00 +5°C° 0 mm 7 mps 583 mmHg 31%
    17:00 +4°C° 0 mm 6 mps 582 mmHg 34%
    18:00 +2°C° 0 mm 6 mps 583 mmHg 39%
    19:00 +1°C° 0 mm 5 mps 583 mmHg 43%
    20:00 0°C° 0 mm 5 mps 583 mmHg 48%
    21:00 -1°C° 0 mm 5 mps 583 mmHg 48%
    22:00 -3°C° 0 mm 6 mps 583 mmHg 47%
    23:00 -3°C° 0 mm 6 mps 584 mmHg 47%

    23 December, Sunday

    Time Temperature Precipitation Wind Pressure Humidity
    00:00 -4°C° 0 mm 5 mps 584 mmHg 44%
    01:00 -5°C° 0 mm 5 mps 584 mmHg 40%
    02:00 -5°C° 0 mm 4 mps 585 mmHg 36%
    03:00 -5°C° 0 mm 4 mps 585 mmHg 36%
    04:00 -5°C° 0 mm 4 mps 585 mmHg 35%
    05:00 -5°C° 0 mm 3 mps 586 mmHg 35%
    06:00 -5°C° 0 mm 3 mps 586 mmHg 33%
    07:00 -4°C° 0 mm 2 mps 587 mmHg 31%
    08:00 -2°C° 0 mm 1 mps 587 mmHg 29%
    09:00 -1°C° 0 mm 2 mps 588 mmHg 24%
    10:00 +2°C° 0 mm 2 mps 589 mmHg 19%
    11:00 +3°C° 0 mm 3 mps 589 mmHg 15%
    12:00 +4°C° 0 mm 3 mps 589 mmHg 15%
    13:00 +4°C° 0 mm 4 mps 588 mmHg 15%
    14:00 +5°C° 0 mm 4 mps 588 mmHg 15%
    15:00 +3°C° 0 mm 4 mps 587 mmHg 19%
    16:00 +1°C° 0 mm 3 mps 586 mmHg 23%
    17:00 0°C° 0 mm 3 mps 586 mmHg 26%
    18:00 -1°C° 0 mm 3 mps 586 mmHg 28%
    19:00 -2°C° 0 mm 2 mps 586 mmHg 29%
    20:00 -2°C° 0 mm 2 mps 586 mmHg 30%
    21:00 -2°C° 0 mm 2 mps 586 mmHg 31%
    22:00 -2°C° 0 mm 2 mps 585 mmHg 32%
    23:00 -3°C° 0 mm 2 mps 585 mmHg 32%

    24 December, Monday

    Time Temperature Precipitation Wind Pressure Humidity
    00:00 -3°C° 0 mm 2 mps 585 mmHg 32%
    01:00 -3°C° 0 mm 2 mps 584 mmHg 32%
    02:00 -3°C° 0 mm 2 mps 584 mmHg 33%
    03:00 -3°C° 0 mm 2 mps 584 mmHg 33%
    04:00 -3°C° 0 mm 2 mps 583 mmHg 33%
    05:00 -3°C° 0 mm 2 mps 583 mmHg 34%
    06:00 -2°C° 0 mm 2 mps 583 mmHg 34%
    07:00 -2°C° 0 mm 2 mps 583 mmHg 34%
    08:00 -1°C° 0 mm 2 mps 583 mmHg 35%
    09:00 +1°C° 0 mm 3 mps 583 mmHg 31%
    10:00 +3°C° 0 mm 4 mps 584 mmHg 28%
    11:00 +5°C° 0 mm 5 mps 584 mmHg 25%
    12:00 +4°C° 0 mm 6 mps 584 mmHg 26%
    13:00 +5°C° 0 mm 6 mps 583 mmHg 27%
    14:00 +5°C° 0 mm 7 mps 582 mmHg 28%
    15:00 +4°C° 0 mm 6 mps 582 mmHg 33%
    16:00 +2°C° 0 mm 5 mps 581 mmHg 38%
    17:00 +1°C° 0 mm 4 mps 580 mmHg 44%
    18:00 +1°C° 0 mm 3 mps 580 mmHg 46%
    19:00 0°C° 0 mm 3 mps 580 mmHg 48%
    20:00 0°C° 0 mm 3 mps 580 mmHg 50%
    21:00 -1°C° 0 mm 3 mps 579 mmHg 50%
    22:00 -1°C° 0 mm 3 mps 579 mmHg 50%
    23:00 -1°C° 0 mm 2 mps 579 mmHg 50%
    Show more